Regional Weather Roundup
Issued by NWS

Home | Current Version | Previous Version | Text Only | Print | Product List | Glossary Off
Versions: 1 2 3 4 5 6 7 8 9 10 11 12 13 14 15 16 17 18 19 20 21 22 23 24 25 26 27 28 29 30 31 32 33 34 35 36 37 38 39 40 41 42 43 44 45 46 47 48 49 50

000
ASUS45 KABQ 251110
RWRNM
NEW MEXICO REGIONAL WEATHER ROUNDUP
NATIONAL WEATHER SERVICE ALBUQUERQUE NM
500 AM MDT WED MAY 25 2016

NOTE: "FAIR" MEANS FEW OR NO CLOUDS BELOW 12,000 FEET AGL WITH NO
       SIGNIFICANT WEATHER OR OBSTRUCTIONS TO VISION.

      THIS PRODUCT IS RELEASED AS TWO VERSIONS.  ONE VERSION NEAR
      THE TOP OF THE HOUR CONTAINING PRELIMINARY DATA FROM ALBUQUERQUE
      AND OTHER STATIONS.  A FINAL VERSION WITH ADDITIONAL DATA IS
      ISSUED ABOUT 10 MINUTES AFTER THE HOUR.

NMZ501-503-504-510>518-251200-
NORTHWEST PLATEAU/NORTHCENTRAL MOUNTAINS

CITY           SKY/WX    TMP DP  RH WIND       PRES   REMARKS
FARMINGTON     FAIR      48  32  53 E7        30.07R
LOS ALAMOS     FAIR      53   5  14 CALM      30.17R
SANTA FE       FAIR      39  13  34 N7        30.11R WCI  34
TAOS           FAIR      34   7  32 E8        30.16R WCI  27
ANGEL FIRE     FAIR      44  10  25 W12G21    30.17S

$$
NMZ402-403-502-505>509-251200-
WESTCENTRAL MOUNTAINS/SOUTHWEST MOUNTAINS

CITY           SKY/WX    TMP DP  RH WIND       PRES   REMARKS
GALLUP         FAIR      33  17  51 NE3       30.14R
GRANTS         FAIR      39  13  34 CALM      30.15R
SILVER CITY      N/A     48  16  27 NW7       30.13R

$$
NMZ407-409-411-412-251200-
SOUTHERN DESERTS

CITY           SKY/WX    TMP DP  RH WIND       PRES   REMARKS
LORDSBURG      FAIR      55  14  19 CALM      30.07R
DEMING         FAIR      52  15  23 W6        30.07R
LAS CRUCES     FAIR      56  18  21 W7        30.08R
HOLLOMAN AFB   FAIR      63  20  18 SE7       30.04R
ALAMOGORDO     FAIR      59  23  25 SE9       30.05R
T OR C         FAIR      59  19  21 VRB3      30.05R

$$
NMZ519>523-251200-
CENTRAL VALLEYS/CENTRAL HIGHLANDS

CITY           SKY/WX    TMP DP  RH WIND       PRES   REMARKS
ALBUQUERQUE    FAIR      54  12  18 CALM      30.09R
DOUBLE EAGLE   FAIR      44  12  27 W6        30.12R
MORIARTY ARPT  FAIR      44  11  26 CALM      30.12R
CLINES CORNERS FAIR      45  10  24 W15       30.11R
BELEN          FAIR      51  13  21 CALM      30.09R
SOCORRO        FAIR      57  20  23 CALM      30.07R

$$
NMZ524>526-539-540-251200-
SOUTHCENTRAL MOUNTAINS

CITY           SKY/WX    TMP DP  RH WIND       PRES   REMARKS
RUIDOSO          N/A     52  16  24 SE3       30.16S

$$
NMZ527>531-251200-
NORTHEAST HIGHLANDS/NORTHEAST PLAINS

CITY           SKY/WX    TMP DP  RH WIND       PRES   REMARKS
LAS VEGAS      FAIR      51  12  21 SW9       30.09S
RATON          FAIR      54   7  15 W16       30.02R
CLAYTON        FAIR      59  19  21 W14       29.95R

$$
NMZ532>537-251200-
EASTCENTRAL PLAINS

CITY           SKY/WX    TMP DP  RH WIND       PRES   REMARKS
TUCUMCARI      FAIR      50  29  44 SW8       29.93R
CANNON AFB     FAIR      62  24  23 W13       29.98R
CLOVIS AIRPORT FAIR      55  27  33 W9        29.97R

$$
NMZ028-029-538-251200-
SOUTHEAST PLAINS

CITY           SKY/WX    TMP DP  RH WIND       PRES   REMARKS
ROSWELL        FAIR      56  23  27 SW8       29.97R
ARTESIA        FAIR      64  18  16 W12       29.98R
CARLSBAD       FAIR      69  16  13 W10       29.96R
HOBBS          FAIR      59  59 100 SW5       29.99R FOG


$$



USA.gov is the U.S. government's official web portal to all federal, state and local government web resources and services.